Location: Ostrava
(49.8330°N, 18.2830°E)
Time: 18:40:32
(UTC+02:00)

Transit 2A - All Passes

Search period start: 02 September 2014 00:00
Search period end: 12 September 2014 00:00
Orbit: 602 x 961 km, 66.7° (Epoch: 01 September)

Date Brightness Start Highest point End Pass type
(mag) Time Alt. Az. Time Alt. Az. Time Alt. Az.
02 Sep - 00:45:02 10° NW 00:49:48 80° NE 00:55:03 10° SE visible
02 Sep - 02:29:13 10° WNW 02:32:33 18° WSW 02:36:05 10° SSW visible
02 Sep - 15:31:35 10° SSE 15:34:45 20° ESE 15:37:55 10° ENE daylight
02 Sep - 17:13:14 10° SW 17:17:31 58° NW 17:21:52 10° NNE daylight
02 Sep - 18:59:05 10° WNW 19:01:41 15° NNW 19:04:20 10° NNE daylight
02 Sep - 22:29:08 10° NNW 22:32:09 17° NNE 22:35:18 10° ENE visible
03 Sep - 00:11:34 10° NNW 00:16:16 59° NE 00:21:25 10° SE visible
03 Sep - 01:55:13 10° WNW 01:59:13 25° WSW 02:03:31 10° SSW visible
03 Sep - 14:59:18 10° SE 15:01:28 14° ESE 15:03:38 10° ENE daylight
03 Sep - 16:39:38 10° SW 16:43:59 82° NW 16:48:23 10° NE daylight
03 Sep - 18:24:49 10° WNW 18:27:53 18° NNW 18:31:01 10° NNE daylight
03 Sep - 21:55:50 10° N 21:58:20 14° NNE 22:00:56 10° NE visible
03 Sep - 23:38:09 10° NNW 23:42:41 44° NE 23:47:38 10° ESE visible
04 Sep - 01:21:25 10° NW 01:25:50 35° WSW 01:30:38 10° S visible
04 Sep - 16:06:10 10° SSW 16:10:29 70° ESE 16:14:52 10° NE daylight
04 Sep - 17:50:40 10° W 17:54:08 23° NW 17:57:41 10° NNE daylight
04 Sep - 21:22:33 10° N 21:24:29 12° NNE 21:26:27 10° NE visible
04 Sep - 23:04:44 10° NNW 23:09:03 34° NE 23:13:44 10° ESE visible
05 Sep - 00:47:45 10° NW 00:52:25 49° WSW 00:57:32 10° SSE visible
05 Sep - 15:32:53 10° SSW 15:37:03 48° ESE 15:41:16 10° NE daylight
05 Sep - 17:16:38 10° W 17:20:25 29° NW 17:24:19 10° NNE daylight
05 Sep - 19:03:56 10° NNW 19:05:10 11° NNW 19:06:25 10° N daylight
05 Sep - 20:49:19 10° N 20:50:35 11° NNE 20:51:53 10° NNE visible
05 Sep - 22:31:22 10° NNW 22:35:23 27° NE 22:39:43 10° E visible
06 Sep - 00:14:10 10° NW 00:18:57 68° WSW 00:24:15 10° SSE visible
06 Sep - 01:59:56 10° W 02:01:26 11° WSW 02:02:57 10° WSW visible
06 Sep - 14:59:46 10° S 15:03:39 33° ESE 15:07:34 10° NE daylight
06 Sep - 16:42:43 10° WSW 16:46:46 37° NW 16:50:55 10° NNE daylight
06 Sep - 18:29:24 10° NW 18:31:17 12° NNW 18:33:13 10° N daylight
06 Sep - 20:16:21 10° N 20:16:40 10° N 20:17:00 10° NNE visible
06 Sep - 21:58:00 10° NNW 22:01:40 22° NE 22:05:35 10° E visible
06 Sep - 23:40:38 10° NW 23:45:28 89° NE 23:50:48 10° SE visible
07 Sep - 01:25:05 10° WNW 01:28:09 16° WSW 01:31:22 10° SW visible
07 Sep - 14:26:54 10° SSE 14:30:18 23° ESE 14:33:44 10° ENE daylight
07 Sep - 16:08:56 10° SW 16:13:09 51° NW 16:17:29 10° NNE daylight
07 Sep - 17:54:59 10° WNW 17:57:26 14° NNW 17:59:56 10° N daylight
07 Sep - 21:24:39 10° NNW 21:27:54 18° NNE 21:31:20 10° ENE visible
07 Sep - 23:07:09 10° NNW 23:11:56 66° NE 23:17:12 10° SE visible
08 Sep - 00:50:58 10° WNW 00:54:49 23° WSW 00:58:56 10° SSW visible
08 Sep - 13:54:23 10° SE 13:57:00 16° ESE 13:59:38 10° ENE daylight
08 Sep - 15:35:17 10° SW 15:39:36 72° NW 15:44:01 10° NNE daylight
08 Sep - 17:20:42 10° WNW 17:23:37 17° NNW 17:26:37 10° NNE daylight
08 Sep - 20:51:19 10° NNW 20:54:06 15° NNE 20:57:00 10° ENE visible
08 Sep - 22:33:42 10° NNW 22:38:22 50° NE 22:43:28 10° ESE visible
09 Sep - 00:17:06 10° NW 00:21:27 31° WSW 00:26:09 10° S visible
09 Sep - 13:22:56 10° ESE 13:23:45 10° ESE 13:24:34 10° E daylight
09 Sep - 15:01:45 10° SSW 15:06:05 81° SE 15:10:31 10° NE daylight
09 Sep - 16:46:30 10° W 16:49:50 21° NNW 16:53:16 10° NNE daylight
09 Sep - 20:18:00 10° N 20:20:15 13° NNE 20:22:34 10° NE visible
09 Sep - 22:00:17 10° NNW 22:04:45 38° NE 22:09:37 10° ESE visible
09 Sep - 23:43:24 10° NW 23:48:02 43° WSW 23:53:08 10° S visible
10 Sep - 14:28:24 10° SSW 14:32:37 55° ESE 14:36:56 10° NE daylight
10 Sep - 16:12:26 10° W 16:16:06 26° NW 16:19:54 10° NNE daylight
10 Sep - 17:59:53 10° NNW 18:00:57 11° NNW 18:02:02 10° N daylight
10 Sep - 19:44:42 10° N 19:46:22 12° NNE 19:48:04 10° NE visible
10 Sep - 21:26:53 10° NNW 21:31:05 30° NE 21:35:38 10° E visible
10 Sep - 23:09:46 10° NW 23:14:35 60° WSW 23:19:54 10° SSE visible
11 Sep - 13:55:12 10° S 13:59:13 38° ESE 14:03:17 10° NE daylight
11 Sep - 15:38:28 10° WSW 15:42:25 34° NW 15:46:31 10° NNE daylight
11 Sep - 17:25:19 10° NW 17:27:03 12° NNW 17:28:49 10° N daylight
11 Sep - 19:11:28 10° N 19:12:27 11° N 19:13:28 10° NNE daylight
11 Sep - 20:53:31 10° NNW 20:57:23 24° NE 21:01:32 10° E visible
11 Sep - 22:36:13 10° NW 22:41:06 82° SW 22:46:30 10° SSE visible
